Location: Newark
(48.6330°N, 1.1472°E)
Time: 07:33:49
(UTC+00:00)

ISS - Visible Passes

Search period start: 25 January 2020 00:00
Search period end: 04 February 2020 00:00
Orbit: 415 x 423 km, 51.6° (Epoch: 25 January)

Date Brightness Start Highest point End Pass type
(mag) Time Alt. Az. Time Alt. Az. Time Alt. Az.
25 Jan -3.8 18:12:54 10° WSW 18:16:17 83° SSE 18:17:29 37° ENE visible
25 Jan -0.4 19:49:58 10° W 19:50:27 13° WNW 19:50:27 13° WNW visible
26 Jan -3.5 17:25:26 10° SW 17:28:47 60° SSE 17:31:56 11° ENE visible
26 Jan -2.6 19:02:21 10° W 19:04:54 41° NW 19:04:54 41° NW visible
27 Jan -3.5 18:14:42 10° W 18:18:04 61° NNW 18:19:20 34° NE visible
27 Jan -0.4 19:51:51 10° WNW 19:52:18 13° WNW 19:52:18 13° WNW visible
28 Jan -3.7 17:27:06 10° WSW 17:30:29 75° NNW 17:33:44 11° ENE visible
28 Jan -2.5 19:04:15 10° WNW 19:06:42 38° NW 19:06:42 38° NW visible
29 Jan -3.2 18:16:36 10° W 18:19:54 49° N 18:21:06 32° NE visible
29 Jan -0.5 19:53:36 10° WNW 19:54:03 13° WNW 19:54:03 13° WNW visible
30 Jan -3.3 17:28:56 10° W 17:32:16 52° N 17:35:30 11° ENE visible
30 Jan -2.6 19:06:00 10° WNW 19:08:28 41° NW 19:08:28 41° NW visible
31 Jan -3.4 18:18:24 10° WNW 18:21:44 51° N 18:22:53 33° ENE visible
31 Jan -0.5 19:55:16 10° WNW 19:55:50 14° WNW 19:55:50 14° WNW visible
01 Feb -3.3 17:30:45 10° WNW 17:34:04 48° N 17:37:20 10° ENE visible
01 Feb -3.0 19:07:40 10° WNW 19:10:18 51° WNW 19:10:18 51° WNW visible
02 Feb -3.8 18:20:04 10° WNW 18:23:27 71° NNE 18:24:48 33° E visible
02 Feb -0.6 19:57:04 10° W 19:57:46 14° W 19:57:46 14° W visible
03 Feb -3.5 17:32:26 10° WNW 17:35:47 58° N 17:39:08 10° E visible
03 Feb -2.8 19:09:19 10° WNW 19:12:21 43° SW 19:12:21 43° SW visible
